Weather History for PATG - September, 2014

Change the Weather History Date:

Wednesday, September 10, 2014

  Actual Average Record
Temperature  
Mean Temperature 55 °F -  
Max Temperature 60 °F 52 °F 66 °F (1999)
Min Temperature 50 °F 39 °F 37 °F (2002)
Degree Days  
Heating Degree Days 10    
Growing Degree Days 5 (Base 50)    
Moisture  
Dew Point 52 °F    
Average Humidity 89    
Maximum Humidity 100    
Minimum Humidity 77    
Precipitation  
Precipitation 0.07 in - - ()
Sea Level Pressure  
Sea Level Pressure 29.87 in    
Wind  
Wind Speed 9 mph (ESE)    
Max Wind Speed 16 mph    
Max Gust Speed -    
Visibility 9 miles    
Events      
Averages and records for this station are not official NWS values.
T = Trace of Precipitation, MM = Missing Value Source: NWS Daily Summary

Daily Weather History Graph

Daily Weather History Graph

Search for Another Location

Airport or City:

Trip Planner

Search our weather history database for the weather conditions in past years. The results will help you decide how hot, cold, wet, or windy it might be!

Date:

Astronomy

Sep. 10, 2014 Rise Set
Actual Time 7:59 AM AKDT 9:15 PM AKDT
Civil Twilight 7:18 AM AKDT 9:57 PM AKDT
Nautical Twilight 6:26 AM AKDT 10:48 PM AKDT
Astronomical Twilight 5:26 AM AKDT 11:47 PM AKDT
Moon 9:40 PM AKDT (9/10) 10:37 AM AKDT (9/10)
Length of Visible Light 14h 39m
Length of Day
13h 15m
Waning Gibbous, 96% of the Moon is Illuminated
Sep 10
Waning Gibbous
Sep 15
Last Quarter
Sep 23
New
Oct 1
First Quarter
Oct 8
Full

Hourly Weather History & Observations

Time (AKDT) Temp. Dew Point Humidity Pressure Visibility Wind Dir Wind Speed Gust Speed Precip Events Conditions
12:16 AM 53.6 °F 51.8 °F 94% 29.82 in 10.0 mi SE 9.2 mph - N/A   Overcast
12:36 AM 53.6 °F 51.8 °F 94% 29.82 in 10.0 mi East 3.5 mph - N/A   Overcast
12:56 AM 53.6 °F 51.8 °F 94% 29.83 in 10.0 mi East 5.8 mph - N/A   Overcast
1:16 AM 53.6 °F 51.8 °F 94% 29.83 in 7.0 mi SE 10.4 mph - N/A   Overcast
1:36 AM 51.8 °F 48.2 °F 88% 29.83 in 9.0 mi Calm Calm - N/A   Mostly Cloudy
1:56 AM 51.8 °F 48.2 °F 88% 29.84 in 7.0 mi NW 4.6 mph - N/A   Mostly Cloudy
2:16 AM 51.8 °F 48.2 °F 88% 29.84 in 4.0 mi NW 3.5 mph - N/A   Overcast
2:36 AM 51.8 °F 50.0 °F 94% 29.84 in 7.0 mi WSW 3.5 mph - 0.03 in   Overcast
2:56 AM 51.8 °F 48.2 °F 88% 29.84 in 5.0 mi North 4.6 mph - 0.04 in   Mostly Cloudy
3:16 AM 50.0 °F 48.2 °F 94% 29.84 in 5.0 mi North 6.9 mph - N/A   Overcast
3:36 AM 50.0 °F 48.2 °F 94% 29.85 in 5.0 mi North 4.6 mph - N/A   Overcast
3:56 AM 50.0 °F 50.0 °F 100% 29.85 in 2.5 mi North 6.9 mph - 0.01 in   Overcast
4:16 AM 50.0 °F 48.2 °F 94% 29.85 in 6.0 mi NE 4.6 mph - N/A   Overcast
4:36 AM 50.0 °F 48.2 °F 94% 29.85 in 3.0 mi NNE 5.8 mph - 0.01 in   Overcast
4:56 AM 50.0 °F 48.2 °F 94% 29.85 in 10.0 mi NNE 5.8 mph - 0.01 in   Overcast
5:16 AM 50.0 °F 48.2 °F 94% 29.85 in 5.0 mi NE 4.6 mph - N/A   Overcast
5:36 AM 50.0 °F 48.2 °F 94% 29.85 in 5.0 mi NE 3.5 mph - N/A   Overcast
5:56 AM 51.8 °F 50.0 °F 94% 29.85 in 10.0 mi ENE 3.5 mph - N/A   Overcast
6:16 AM 53.6 °F 51.8 °F 94% 29.85 in 10.0 mi ESE 8.1 mph - N/A   Overcast
6:36 AM 53.6 °F 51.8 °F 94% 29.86 in 5.0 mi East 10.4 mph - N/A   Overcast
6:56 AM 53.6 °F 51.8 °F 94% 29.86 in 10.0 mi East 9.2 mph - N/A   Overcast
7:36 AM 53.6 °F 51.8 °F 94% 29.86 in 10.0 mi East 11.5 mph - N/A   Overcast
7:56 AM 53.6 °F 51.8 °F 94% 29.86 in 9.0 mi East 10.4 mph - N/A   Overcast
8:16 AM 53.6 °F 51.8 °F 94% 29.86 in 10.0 mi East 9.2 mph - N/A   Overcast
8:36 AM 53.6 °F 51.8 °F 94% 29.86 in 10.0 mi East 9.2 mph - N/A   Overcast
8:56 AM 53.6 °F 51.8 °F 94% 29.87 in 10.0 mi East 10.4 mph - N/A   Overcast
9:16 AM 53.6 °F 51.8 °F 94% 29.87 in 7.0 mi East 9.2 mph - N/A   Overcast
9:36 AM 53.6 °F 51.8 °F 94% 29.88 in 10.0 mi East 8.1 mph - N/A   Overcast
9:56 AM 53.6 °F 51.8 °F 94% 29.88 in 10.0 mi East 8.1 mph - N/A   Overcast
10:16 AM 53.6 °F 51.8 °F 94% 29.88 in 10.0 mi East 9.2 mph - N/A   Overcast
10:36 AM 53.6 °F 51.8 °F 94% 29.89 in 10.0 mi East 9.2 mph - N/A   Overcast
10:56 AM 55.4 °F 53.6 °F 94% 29.89 in 10.0 mi ESE 12.7 mph - N/A   Overcast
11:16 AM 55.4 °F 53.6 °F 94% 29.89 in 10.0 mi ESE 10.4 mph - N/A   Overcast
11:36 AM 55.4 °F 53.6 °F 94% 29.89 in 10.0 mi ESE 11.5 mph - N/A   Overcast
11:56 AM 55.4 °F 53.6 °F 94% 29.90 in 7.0 mi ESE 12.7 mph - N/A   Overcast
12:16 PM 55.4 °F 53.6 °F 94% 29.90 in 10.0 mi SSE 16.1 mph - 0.01 in   Mostly Cloudy
12:36 PM 55.4 °F 53.6 °F 94% 29.90 in 10.0 mi SE 15.0 mph - 0.01 in   Overcast
12:56 PM 55.4 °F 53.6 °F 94% 29.90 in 10.0 mi SE 12.7 mph - 0.01 in   Overcast
1:16 PM 57.2 °F 53.6 °F 88% 29.90 in 10.0 mi SE 15.0 mph - N/A   Overcast
1:36 PM 57.2 °F 53.6 °F 88% 29.90 in 10.0 mi SE 12.7 mph - N/A   Overcast
1:56 PM 57.2 °F 53.6 °F 88% 29.90 in 10.0 mi SE 12.7 mph - N/A   Overcast
2:16 PM 57.2 °F 53.6 °F 88% 29.90 in 10.0 mi SSE 12.7 mph - N/A   Overcast
2:36 PM 57.2 °F 53.6 °F 88% 29.90 in 10.0 mi SSE 13.8 mph - N/A   Overcast
2:56 PM 55.4 °F 51.8 °F 88% 29.91 in 10.0 mi SE 12.7 mph - N/A   Overcast
3:16 PM 57.2 °F 53.6 °F 88% 29.90 in 10.0 mi SE 13.8 mph - N/A   Overcast
3:36 PM 57.2 °F 53.6 °F 88% 29.90 in 10.0 mi SSE 13.8 mph - N/A   Overcast
3:56 PM 57.2 °F 53.6 °F 88% 29.90 in 10.0 mi SE 12.7 mph - N/A   Overcast
4:16 PM 59.0 °F 53.6 °F 82% 29.89 in 10.0 mi SE 15.0 mph - N/A   Overcast
4:36 PM 59.0 °F 53.6 °F 82% 29.89 in 10.0 mi SE 13.8 mph - N/A   Overcast
4:56 PM 59.0 °F 53.6 °F 82% 29.89 in 10.0 mi SE 13.8 mph - N/A   Mostly Cloudy
5:16 PM 59.0 °F 53.6 °F 82% 29.89 in 10.0 mi SSE 9.2 mph - N/A   Mostly Cloudy
5:36 PM 59.0 °F 53.6 °F 82% 29.89 in 10.0 mi SSE 15.0 mph - N/A   Mostly Cloudy
5:56 PM 57.2 °F 53.6 °F 88% 29.88 in 10.0 mi SSE 10.4 mph - N/A   Overcast
6:16 PM 59.0 °F 53.6 °F 82% 29.88 in 10.0 mi SE 10.4 mph - N/A   Overcast
6:36 PM 60.8 °F 53.6 °F 77% 29.88 in 10.0 mi SE 11.5 mph - N/A   Overcast
6:56 PM 60.8 °F 53.6 °F 77% 29.88 in 10.0 mi SE 11.5 mph - N/A   Overcast
7:16 PM 59.0 °F 51.8 °F 77% 29.87 in 10.0 mi ESE 10.4 mph - N/A   Overcast
7:36 PM 59.0 °F 53.6 °F 82% 29.87 in 10.0 mi ESE 11.5 mph - N/A   Overcast
7:56 PM 59.0 °F 51.8 °F 77% 29.86 in 10.0 mi ESE 16.1 mph - N/A   Overcast
8:16 PM 59.0 °F 51.8 °F 77% 29.86 in 10.0 mi ESE 13.8 mph - N/A   Overcast
8:36 PM 59.0 °F 51.8 °F 77% 29.86 in 10.0 mi East 11.5 mph - N/A   Overcast
8:56 PM 57.2 °F 51.8 °F 82% 29.86 in 10.0 mi East 10.4 mph - N/A   Overcast
9:16 PM 57.2 °F 51.8 °F 82% 29.85 in 10.0 mi East 9.2 mph - N/A   Overcast
9:36 PM 55.4 °F 51.8 °F 88% 29.86 in 10.0 mi East 9.2 mph - N/A   Mostly Cloudy
9:56 PM 57.2 °F 51.8 °F 82% 29.86 in 10.0 mi East 11.5 mph - N/A   Overcast
10:16 PM 57.2 °F 51.8 °F 82% 29.86 in 10.0 mi East 11.5 mph - N/A   Overcast
10:36 PM 57.2 °F 51.8 °F 82% 29.86 in 10.0 mi East 10.4 mph - N/A   Overcast
10:56 PM 57.2 °F 51.8 °F 82% 29.85 in 10.0 mi East 10.4 mph - N/A   Overcast
11:16 PM 57.2 °F 53.6 °F 88% 29.85 in 10.0 mi ESE 13.8 mph - N/A   Overcast
11:36 PM 57.2 °F 53.6 °F 88% 29.85 in 10.0 mi ESE 16.1 mph - N/A   Overcast
11:56 PM 57.2 °F 53.6 °F 88% 29.85 in 10.0 mi ESE 15.0 mph - N/A   Overcast